Regional Weather Roundup
Issued by NWS Kansas City/Pleasant Hill, MO

Home | Current Version | Previous Version | Graphics & Text | Print | Product List | Glossary Off
Versions: 1 2 3 4 5 6 7 8 9 10 11 12 13 14 15 16 17 18 19 20 21 22 23 24 25 26 27 28 29 30 31 32 33 34 35 36 37 38 39 40 41 42 43 44 45 46 47 48

000
ASUS43 KEAX 280710
RWREAX

WEATHER ROUNDUP FOR EASTERN KANSAS AND NORTHWEST MISSOURI
NATIONAL WEATHER SERVICE KANSAS CITY/PLEASANT HILL MO
200 AM CDT TUE JUL 28 2015

KSZ040-057-103>105-MOZ028-029-037-043-280800-
...KANSAS CITY METROPOLITAN AREA...

CITY           SKY/WX    TMP DP  RH WIND       PRES   REMARKS
K.C. INTL      CLEAR     77  73  87 SE9       29.89F
K.C. DOWNTOWN  CLEAR     80  75  84 E7        29.88F
LEES SUMMIT    CLEAR     80  75  84 SE6       29.91F
OLATHE - IXD   CLEAR     79  74  84 S9        29.90F
OLATHE - OJC   CLEAR     78  73  84 S7        29.89F
LAWRENCE       CLEAR     80  73  79 S12       29.87F

$$

MOZ001>008-011>017-020>025-030>033-038>040-044>046-053-054-280800-
...NORTHERN AND CENTRAL MISSOURI...

CITY           SKY/WX    TMP DP  RH WIND       PRES   REMARKS
ST. JOSEPH     CLEAR     76  72  87 S5        29.88S
MOSBY          SUNNY     75  70  83 CALM      29.90S
WARRENSBURG    CLEAR     77  72  83 CALM      29.91S
WHITEMAN AFB   CLEAR     78  74  87 SE6       29.91S
CLINTON        CLEAR     82  79  89 S6        29.92S HX  93
SEDALIA        CLEAR     78  71  79 SE7       29.93F
WARSAW         NOT AVBL
CHILLICOTHE      N/A     76  70  82 S6        29.92F
KIRKSVILLE     PTCLDY    72  69  90 S6        29.94F

$$

MOZ041-047>049-056>058-063>065-088>090-097-280800-
...EASTERN AND SOUTHERN MISSOURI...

CITY           SKY/WX    TMP DP  RH WIND       PRES   REMARKS
ST. LOUIS INTL MOCLDY    78  70  76 CALM      29.95F
SPIRIT OF STL  MOCLDY    75  73  93 CALM      29.93F
COLUMBIA       CLEAR     74  71  91 SE5       29.94F
JEFFERSON CITY PTCLDY    75  71  87 SE3       29.92F
ROLLA          CLOUDY    75  72  90 SE6       29.95F
OSAGE BEACH    PTCLDY    79  72  78 SE3       29.94F
SPRINGFIELD    CLEAR     80  75  84 SE9       29.96S
BRANSON        CLEAR     79  72  78 CALM      29.99R
JOPLIN         CLEAR     82  74  76 S10       29.92F
WEST PLAINS    CLEAR     79  72  79 SW6       30.00S

$$

IAZ060-094-KSZ022-034>040-054-083-096-NEZ052-066-093-280800-
...KANSAS...SOUTHEAST NEBRASKA AND IOWA...

CITY           SKY/WX    TMP DP  RH WIND       PRES   REMARKS
TOPEKA         CLEAR     82  73  74 S8        29.86F
MANHATTAN      CLEAR     81  73  76 S9        29.84S
EMPORIA        CLEAR     78  73  84 S13       29.88S
CHANUTE        CLEAR     80  75  84 S7        29.91S
WICHITA        CLEAR     82  69  64 S15       29.87F
OMAHA          PTCLDY    77  71  82 SE14      29.82F
LINCOLN        CLEAR     81  72  74 S14       29.81F
FALLS CITY     CLEAR     75  73  93 SE7       29.85S
LAMONI         CLEAR     73  69  87 SE8       29.91F
DES MOINES     PTCLDY    74  69  85 SE7       29.88F

$$




USA.gov is the U.S. government's official web portal to all federal, state and local government web resources and services.